Regional Weather Roundup
Issued by NWS Charleston, SC

Current Version | Previous Version | Graphics & Text | Print | Product List | Glossary On
Versions: 1 2 3 4 5 6 7 8 9 10 11 12 13 14 15 16 17 18 19 20 21 22 23 24 25 26 27 28 29 30 31 32 33 34 35 36 37 38 39 40 41 42 43 44 45 46 47 48 49 50
000 ASUS42 KCHS 180710 RWRCHS REGIONAL WEATHER ROUNDUP NATIONAL WEATHER SERVICE CHARLESTON SC 300 AM EDT THU SEP 18 2014 NOTE: "FAIR" INDICATES FEW OR NO CLOUDS BELOW 12,000 FEET WITH NO SIGNIFICANT WEATHER AND/OR OBSTRUCTIONS TO VISIBILITY. NOT ALL STATIONS ARE QUALITY CONTROLLED BY THE NATIONAL WEATHER SERVICE. USE DATA WITH CAUTION...ESPECIALLY DEWPOINT OBSERVATIONS. SCZ027-030-031-034>040-042>050-180800- ...SOUTH CAROLINA... CITY SKY/WX TMP DP RH WIND PRES REMARKS N CHARLESTON PTCLDY 72 69 90 CALM 29.90S WATERFRONT PRK NOT AVBL FORT JOHNSON NOT AVBL MOUNT PLEASANT FAIR 72 70 94 CALM 29.90S JOHNS ISLAND PTSUNNY 72 72 100 CALM 29.90F PINOPOLIS N/A 77 70 78 N5 29.81F MONCKS CORNER N/A 68 68 100 CALM 29.90F FOG SUMMERVILLE PTSUNNY 68 68 100 CALM 29.91S BEAUFORT MCAS CLOUDY 73 71 93 N3 29.90F BEAUFORT ARPT FAIR 72 72 100 CALM 29.89F HILTON HEAD IS PTCLDY 70 70 100 CALM 29.91S GEORGETOWN NOT AVBL WALTERBORO SUNNY 68 N/A N/A CALM 29.91S ORANGEBURG CLEAR 68 66 93 CALM 29.91F BARNWELL FAIR 66 66 100 CALM 29.92S AIKEN FAIR 66 66 100 CALM 29.95F MANNING FAIR 68 N/A N/A CALM 29.91S KINGSTREE NOT AVBL COLUMBIA CLEAR 69 65 86 CALM 29.91F SUMTER PTCLDY 68 64 89 CALM 29.89F FLORENCE MOCLDY 70 68 93 E5 29.90F MYRTLE BEACH PTCLDY 72 66 83 NW3 29.90S N MYRTLE BEACH PTCLDY 70 67 90 N5 29.89F $$ GAZ063-065-086>088-099>101-113>116-118-119-134-136>141-150-180800- ...GEORGIA... CITY SKY/WX TMP DP RH WIND PRES REMARKS SAVANNAH ARPT CLEAR 72 68 87 CALM 29.89R HUNTER AAF CLEAR 71 71 100 E3 29.87S FORT STEWART FOG 71 71 97 CALM 29.87F VSB 1/2 STATESBORO NOT AVBL SYLVANIA SUNNY 69 69 99 CALM 29.90S FOG CLAXTON FAIR N/A N/A N/A CALM 29.88F THOMSON N/A 69 69 100 CALM 29.96F AUGUSTA-BUSH FOG 67 66 97 CALM 29.91S VSB 3/4 AUGUSTA-DANIEL CLOUDY 69 68 96 N6 29.92F FOG SWAINSBORO FAIR 70 70 100 CALM 29.91S VIDALIA CLEAR 70 70 100 CALM 29.89S ALMA CLEAR 68 67 96 CALM 29.88F WAYCROSS CLEAR 73 72 98 CALM 29.88S JESUP FAIR 72 70 94 CALM 29.89S BRUNSWICK N/A 70 68 94 CALM 29.89S VSB 3/4 SAINT SIMONS CLEAR 75 72 90 CALM 29.88S $$ SCZ027-028-034-036>038-045-046-048>050-GAZ119-141-180800- ...LAKE AND SUPPLEMENTAL COASTAL OBSERVATIONS... STATION/POSITION TIME TEMP WIND PRES WAVE SWELL AIR SEA DIR/SP/G HT/PER HT/PER/DIR (UTC) (F) (DEG/KT/KT) (MB) (FT/S) (FT/S/D) UPR LAKE MARION NOT AVBL WINYAH BAY 0600 71 300/ 4 1012.0S LAKE MURRAY 0600 68 360/ 1/ 3 1012.9S ACE BASIN NERRS 0600 70 310/ 3 1013.0S FORT PULASKI 0700 76 50/ 8/ 10 1012.6R SAPELO ISLAND NOT AVBL $$ ANZ835-935-AMZ111-154-330-350-352-354-374-450-454-472-180800- ...C-MAN AND BUOY OBSERVATIONS... STATION/POSITION TIME TEMP WIND PRES WAVE SWELL AIR SEA DIR/SP/G HT/PER HT/PER/DIR (UTC) (F) (DEG/KT/KT) (MB) (FT/S) (FT/S/D) FOLLY BEACH CMAN 0600 74 320/ 2/ 3 1012.8F BUOY 41004 0700 80 83 340/ 6/ 6 1011.7F 4/13 3/13 BUOY 41008 0700 78 84 220/ 10/ 12 1011.8F 3/11 2/ 90/11 5E ST. MARYS GA 0700 84 N/A 3/13 2/100/13 FRYING PAN BUOY NOT AVBL BUOY 41025 0700 73 30/ 14/ 16 1011.9S 6/14 5/ 80/14 CAPE LOOKOUT NC 0600 75 40/ 15/ 17 1012.3F BUOY 41002 0645 78 82 350/ 8/ 10 1011.1R 5/13 5/ 70/13 BUOY 41010 0700 80 85 360/ 6/ 8 1011.5F 5/12 5/ 50/12 BUOY 41012 NOT AVBL ST AUGUSTINE FL 0700 74 250/ 3/ 4 1012.6F CAPERS NEARSHORE 0600 77 10/ 8/ 10 N/A FRIPP NEARSHORE NOT AVBL $$

USA.gov is the U.S. government's official web portal to all federal, state and local government web resources and services.